Regional Weather Roundup
Issued by NWS Midland/Odessa, TX

Skip options and go directly to product.
Home | Oldest Version | Previous Version | Current Version | All | Text Only | Save Text | Print | Product List | Glossary Off

Skip product version selection by date and time.   

713
ASUS44 KMAF 221610
RWRMAF
MIDLAND AREA WEATHER ROUNDUP
NATIONAL WEATHER SERVICE MIDLAND TX
1000 AM CST SAT NOV 22 2014

...IN SOUTHWEST TEXAS AND SOUTHEAST NEW MEXICO...

CITY           SKY/WX    TMP DP  RH WIND       PRES   REMARKS
ALPINE         MOSUNNY   55  46  71 CALM      30.06S
ANDREWS        FAIR      57  55  95 CALM      29.94F
ARTESIA        NOT AVBL
BIG SPRING     CLOUDY    61  58  91 CALM      29.97R
CARLSBAD       MOSUNNY   59  45  59 NW9       29.99S
DRYDEN           N/A     61  59  93 CALM      29.92S
FORT STOCKTON  CLOUDY    57  50  77 W14       29.96S
GUAD PASS      MOSUNNY   51  32  48 VRB5      30.06F
HOBBS          CLOUDY    55  54  94 NW7       29.98F FOG
MARFA          MOSUNNY   54  43  66 CALM      30.03S
MIDLAND AIRPK  PTSUNNY   58  58 100 CALM      29.97R THUNDER FOG
MIDLAND INTL   CLOUDY    58  56  93 NW7       29.96R FOG
ODESSA         PTSUNNY   59  55  87 N5        29.96S FOG
PECOS          CLOUDY    57  53  86 W14       29.97R FOG
PRESIDIO       FAIR      58  49  72 SW5       30.00R
SEMINOLE       PTSUNNY   59  54  83 CALM      29.97F
SNYDER         CLOUDY    60  58  93 SE6       29.96R THUNDER
WINK           PTSUNNY   60  53  77 NW5       29.94S
$$
...OTHER STATIONS IN TEXAS...

CITY           SKY/WX    TMP DP  RH WIND       PRES   REMARKS
ABILENE        CLOUDY    66  60  81 S18       29.95F
AMARILLO       SUNNY     56  46  69 SW16      29.94F
AUSTIN         CLOUDY    64  63  96 E14       30.00S
BROWNSVILLE    PTSUNNY   76  72  87 SE17G29   29.95R
CORPUS CHRISTI PTSUNNY   74  70  87 SE21G26   29.95R
DALLAS FTW     DRIZZLE   56  56 100 SE14      30.03R FOG
DEL RIO        CLOUDY    69  66  90 SE12      29.90S
EL PASO        MOSUNNY   59  39  47 SW8       30.04S
HOUSTON INT    CLOUDY    64  60  87 SE12      30.05F
LUBBOCK        PTSUNNY   49  44  83 W6        29.97F
SAN ANGELO     LGT RAIN  66  61  84 CALM      29.93S
SAN ANTONIO    RAIN      67  66  97 SE12      29.95F FOG
WACO           CLOUDY    64  60  87 SE13      30.02F
WICHITA FALLS  NOT AVBL
$$
...OTHER LOCATIONS IN NEW MEXICO...

CITY           SKY/WX    TMP DP  RH WIND       PRES   REMARKS
ALAMAGORDO     SUNNY     50  27  40 NW6       30.08R
ALBUQUERQUE    MOSUNNY   37  20  50 NW6       30.12R WCI  32
CANNON AFB     SUNNY     50  35  56 W12       30.00R
CLOVIS         SUNNY     50  37  62 SW14      30.00R
HOLLOMAN AFB   SUNNY     49  27  41 VRB1      30.06R
ROSWELL        SUNNY     54  27  35 N9        30.02F
RUIDOSO        SUNNY     48  21  34 NW6       30.12R
SANTA FE       SUNNY     39  22  50 N8        30.09R WCI  33
TRUTH OR CONSE SUNNY     47  22  37 CALM      30.10R
TUCUMCARI      SUNNY     49  23  36 W16       29.94F
$$

USA.gov is the U.S. government's official web portal to all federal, state and local government web resources and services.